Terug naar catalogus

FENGYUN 1C DEB

ActiefSSO
NORAD 33701·DEBRIS·🇨🇳 China

Gelanceerd May 10, 1999 vanaf Taiyuan Satellite Launch Center

Loading…

Volgende Passages (komende 24 uur)

TLE

VersSource: Space-Track

Epoch: Sep 13, 2026, 06:47 UTC

1 33701U 99025DGN 26256.28325962  .00001780  00000-0  10769-2 0  9998
2 33701  98.6748 202.7926 0131201 137.2171 223.9298 14.03474702943559

Volg FENGYUN 1C DEB in realtime met AllMySat

Download on the App Store